Weather History for KLAR - August, 2012

Change the Weather History Date:

Saturday, August 4, 2012

  Actual Average Record
Temperature  
Mean Temperature 63 °F 64 °F  
Max Temperature 78 °F 80 °F 91 °F (1979)
Min Temperature 47 °F 49 °F 33 °F (1980)
Degree Days  
Heating Degree Days 2 2  
Month to date heating degree days 2 8  
Since 1 June heating degree days 96 318  
Since 1 July heating degree days 14 77  
Cooling Degree Days 0 1  
Month to date cooling degree days 9 4  
Year to date cooling degree days 177 51  
Since 1 June cooling degree days 177 51  
Growing Degree Days 12 (Base 50)    
Moisture  
Dew Point 38 °F    
Average Humidity 47    
Maximum Humidity 77    
Minimum Humidity 16    
Precipitation  
Precipitation 0.00 in 0.05 in 0.80 in (1955)
Month to date precipitation T 0.19  
Year to date precipitation 4.08 7.11  
Sea Level Pressure  
Sea Level Pressure 30.05 in    
Wind  
Wind Speed 9 mph (ESE)    
Max Wind Speed 23 mph    
Max Gust Speed 29 mph    
Visibility 10 miles    
Events      
T = Trace of Precipitation, MM = Missing Value Source: NWS Daily Summary

Daily Weather History Graph

Daily Weather History Graph

Search for Another Location

Airport or City:

Trip Planner

Search our weather history database for the weather conditions in past years. The results will help you decide how hot, cold, wet, or windy it might be!

Date:

Astronomy

Aug. 04, 2012 Rise Set
Actual Time 6:01 AM MDT 8:15 PM MDT
Civil Twilight 5:30 AM MDT 8:46 PM MDT
Nautical Twilight 4:52 AM MDT 9:23 PM MDT
Astronomical Twilight 4:10 AM MDT 10:05 PM MDT
Moon 9:22 PM MDT (8/4) 8:53 AM MDT (8/4)
Length of Visible Light 15h 15m
Length of Day
14h 14m
Waning Gibbous, 92% of the Moon is Illuminated
Aug 4
Waning Gibbous
Aug 9
Last Quarter
Aug 17
New
Aug 24
First Quarter
Aug 31
Full

Hourly Weather History & Observations

Time (MDT) Temp. Dew Point Humidity Pressure Visibility Wind Dir Wind Speed Gust Speed Precip Events Conditions
12:53 AM 50.0 °F 42.1 °F 74% 29.93 in 10.0 mi ENE 11.5 mph - N/A   Clear
1:53 AM 48.0 °F 41.0 °F 77% 29.95 in 10.0 mi East 3.5 mph - N/A   Scattered Clouds
2:53 AM 48.9 °F 41.0 °F 74% 29.95 in 10.0 mi ESE 8.1 mph - N/A   Overcast
3:53 AM 50.0 °F 41.0 °F 71% 29.94 in 10.0 mi SSE 3.5 mph - N/A   Overcast
4:11 AM 50.0 °F 42.8 °F 76% 30.28 in 10.0 mi SW 4.6 mph - N/A   Overcast
4:53 AM 50.0 °F 41.0 °F 71% 29.96 in 10.0 mi Calm Calm - N/A   Overcast
5:01 AM 50.0 °F 41.0 °F 71% 30.30 in 10.0 mi Calm Calm - N/A   Overcast
5:53 AM 48.0 °F 39.9 °F 74% 29.97 in 10.0 mi South 4.6 mph - N/A   Partly Cloudy
6:53 AM 50.0 °F 37.0 °F 61% 29.97 in 10.0 mi SSE 6.9 mph - N/A   Partly Cloudy
7:53 AM 53.1 °F 37.0 °F 55% 30.00 in 10.0 mi SSE 11.5 mph - N/A   Clear
8:53 AM 55.0 °F 41.0 °F 59% 30.04 in 10.0 mi South 8.1 mph - N/A   Clear
9:53 AM 59.0 °F 41.0 °F 51% 30.04 in 10.0 mi South 4.6 mph - N/A   Clear
10:53 AM 64.9 °F 42.1 °F 43% 30.03 in 10.0 mi Variable 4.6 mph - N/A   Clear
11:53 AM 69.8 °F 35.6 °F 28% 30.32 in 10.0 mi Variable 3.5 mph - N/A   Clear
12:53 PM 71.1 °F 34.0 °F 26% 30.03 in 10.0 mi Variable 3.5 mph - N/A   Clear
1:53 PM 75.0 °F 32.0 °F 21% 30.02 in 10.0 mi North 13.8 mph 19.6 mph N/A   Partly Cloudy
2:53 PM 75.9 °F 28.9 °F 18% 30.01 in 10.0 mi NNE 13.8 mph 20.7 mph N/A   Clear
3:53 PM 75.9 °F 28.9 °F 18% 30.01 in 10.0 mi North 11.5 mph 20.7 mph N/A   Clear
4:53 PM 77.0 °F 28.0 °F 17% 30.00 in 10.0 mi NNE 11.5 mph 17.3 mph N/A   Clear
5:53 PM 75.9 °F 27.0 °F 16% 30.03 in 10.0 mi NNE 6.9 mph 18.4 mph N/A   Clear
6:53 PM 73.9 °F 28.0 °F 18% 30.04 in 10.0 mi ENE 8.1 mph - N/A   Clear
7:53 PM 66.9 °F 42.1 °F 40% 30.06 in 10.0 mi SE 16.1 mph - N/A   Clear
8:53 PM 63.0 °F 44.1 °F 50% 30.09 in 10.0 mi SE 12.7 mph - N/A   Clear
9:53 PM 61.0 °F 43.0 °F 52% 30.11 in 10.0 mi SE 12.7 mph - N/A   Clear
10:53 PM 60.1 °F 42.1 °F 51% 30.09 in 10.0 mi SE 9.2 mph - N/A   Clear
11:53 PM 60.1 °F 41.0 °F 49% 30.08 in 10.0 mi SE 19.6 mph 26.5 mph N/A   Clear